{"data":{"norad_id":63319,"intl_designator":"2025-057N","name":"STARLINK-11588 [DTC]","alt_names":[],"object_type":"PAYLOAD","status":"ACTIVE","operator":null,"country":"US","launch_date":"2025-03-18","launch_site_code":"AFETR","launch_vehicle":null,"mission":null,"orbit_class":"UNKNOWN","rcs_meters":null,"size_class":null,"mass_kg":null,"dimensions":null,"purposes":["comms"],"wikipedia_slug":null,"has_3d_model":false,"image_url":null,"decayed_at":null,"tle_current":{"epoch":"2026-09-20T19:03:07.346592Z","epoch_age_seconds":133510,"freshness":"FRESH","line1":"1 63319U 25057N   26263.79383503  .00479088  00000+0  35657-2 0  9991","line2":"2 63319  42.9999 168.3941 0001537 240.0997 119.9718 15.70572805 87860","mean_motion":15.70572805,"eccentricity":0.0001537,"inclination_deg":42.9999,"raan_deg":168.3941,"arg_perigee_deg":240.0997,"mean_anomaly_deg":119.9718,"bstar":0.0035657,"rev_number":8786,"period_min":91.686294033342,"perigee_km":356.22363280871,"apogee_km":358.29409349704,"semimajor_km":6735.3958631529,"source":"CELESTRAK","updated_at":"2026-09-21T09:00:34.969491Z"}}}